Beaufort, NC

7:22 AM EST on November 21, 2017 (GMT -0500)
Smith

Weather History for KMRH - January, 2015

Change the Weather History Date:

Tuesday, January 13, 2015

  Actual Average Record
Temperature  
Mean Temperature 47 °F -  
Max Temperature 57 °F 55 °F 73 °F (2005)
Min Temperature 37 °F 34 °F 8 °F (1981)
Degree Days  
Heating Degree Days 18    
Moisture  
Dew Point 45 °F    
Average Humidity 95    
Maximum Humidity 100    
Minimum Humidity 89    
Precipitation  
Precipitation 0.00 in - - ()
Sea Level Pressure  
Sea Level Pressure 30.24 in    
Wind  
Wind Speed 12 mph (North)    
Max Wind Speed 24 mph    
Max Gust Speed 34 mph    
Visibility 8 miles    
Events Fog , Rain    
Averages and records for this station are not official NWS values.
T = Trace of Precipitation, MM = Missing Value Source: NWS Daily Summary

Daily Weather History Graph

Daily Weather History Graph

Search for Another Location

Airport or City:

Trip Planner

Search our weather history database for the weather conditions in past years. The results will help you decide how hot, cold, wet, or windy it might be!

Date:

Astronomy

Jan. 13, 2015 Rise Set
Actual Time 7:14 AM EST 5:16 PM EST
Civil Twilight 6:46 AM EST 5:44 PM EST
Nautical Twilight 6:15 AM EST 6:15 PM EST
Astronomical Twilight 5:45 AM EST 6:45 PM EST
Moon 12:15 AM EST (1/13) 11:48 AM EST (1/13)
Length of Visible Light 10h 57m
Length of Day
10h 02m
Waning Gibbous, 47% of the Moon is Illuminated
Jan 13
Waning Gibbous
Jan 20
New
Jan 26
First Quarter
Feb 3
Full
Feb 11
Last Quarter

Hourly Weather History & Observations

Time (EST) Temp. Windchill Dew Point Humidity Pressure Visibility Wind Dir Wind Speed Gust Speed Precip Events Conditions
12:06 AM 53.1 °F - 53.1 °F 100% 30.12 in 1.5 mi West 3.5 mph - N/A   Overcast
12:11 AM 54.0 °F - 54.0 °F 100% 30.12 in 0.8 mi West 4.6 mph - N/A   Mist
1:10 AM 55.0 °F - 55.0 °F 100% 30.11 in 0.5 mi Calm Calm - N/A Fog Fog
1:31 AM 54.0 °F - 54.0 °F 100% 30.11 in 0.5 mi Calm Calm - N/A Fog Fog
1:58 AM 55.0 °F - 55.0 °F 100% 30.13 in 0.5 mi NNW 5.8 mph - N/A Fog Fog
2:17 AM 57.0 °F - 57.0 °F 100% 30.13 in 1.2 mi NW 9.2 mph - N/A   Overcast
2:21 AM 57.0 °F - 57.0 °F 100% 30.13 in 3.0 mi NW 10.4 mph - N/A   Overcast
2:45 AM 55.9 °F - 55.9 °F 100% 30.13 in 4.0 mi North 9.2 mph - N/A   Overcast
2:58 AM 57.9 °F - 57.9 °F 100% 30.14 in 4.0 mi NNW 13.8 mph - N/A   Overcast
3:46 AM 55.9 °F - 55.9 °F 100% 30.14 in 10.0 mi North 13.8 mph - N/A   Overcast
3:58 AM 55.9 °F - 55.9 °F 100% 30.15 in 9.0 mi North 11.5 mph - N/A   Overcast
4:58 AM 50.0 °F - 50.0 °F 100% 30.20 in 8.0 mi NNE 16.1 mph 24.2 mph 0.00 in   Overcast
5:13 AM 48.9 °F - 48.0 °F 97% 30.21 in 10.0 mi NNE 16.1 mph 25.3 mph N/A   Overcast
5:58 AM 46.9 °F - 45.0 °F 93% 30.24 in 10.0 mi NNE 17.3 mph 24.2 mph N/A   Overcast
6:20 AM 46.0 °F 40.6 °F 45.0 °F 96% - 10.0 mi NNE 11.5 mph 21.9 mph N/A   Overcast
6:58 AM 46.0 °F 39.6 °F 44.1 °F 93% - 10.0 mi NNE 15.0 mph 23.0 mph N/A   Overcast
7:32 AM 45.0 °F 37.1 °F 43.0 °F 93% - 10.0 mi NNE 19.6 mph 25.3 mph N/A   Overcast
7:58 AM 44.1 °F 35.4 °F 42.1 °F 93% - 10.0 mi NNE 21.9 mph 29.9 mph N/A   Overcast
8:51 AM 43.0 °F 34.8 °F 41.0 °F 93% - 10.0 mi NNE 18.4 mph 27.6 mph N/A   Overcast
8:58 AM 43.0 °F 34.8 °F 41.0 °F 93% 30.31 in 10.0 mi NNE 18.4 mph 26.5 mph N/A   Overcast
9:58 AM 44.1 °F 36.2 °F 41.0 °F 89% 30.35 in 10.0 mi NNE 18.4 mph 28.8 mph N/A   Overcast
10:58 AM 43.0 °F 35.1 °F 41.0 °F 93% 30.34 in 10.0 mi NNE 17.3 mph 28.8 mph N/A   Overcast
11:11 AM 43.0 °F 34.0 °F 39.9 °F 89% 30.33 in 8.0 mi North 21.9 mph 29.9 mph N/A   Overcast
11:58 AM 42.1 °F 32.8 °F 39.9 °F 92% 30.32 in 10.0 mi NNE 21.9 mph 32.2 mph N/A   Overcast
12:58 PM 42.1 °F 32.8 °F 39.9 °F 92% 30.30 in 10.0 mi NNE 21.9 mph 32.2 mph N/A   Overcast
1:58 PM 42.1 °F 32.8 °F 39.0 °F 89% 30.30 in 10.0 mi NNE 21.9 mph 33.4 mph N/A   Overcast
2:58 PM 41.0 °F 30.9 °F 37.9 °F 89% 30.31 in 10.0 mi NNE 24.2 mph 33.4 mph 0.00 in Rain Light Rain
3:55 PM 39.2 °F 28.7 °F 37.4 °F 93% 30.31 in 8.0 mi NNE 23.0 mph 31.1 mph 0.01 in   Overcast
3:58 PM 39.9 °F 30.2 °F 37.9 °F 93% 30.31 in 8.0 mi NNE 20.7 mph 31.1 mph 0.01 in   Overcast
4:39 PM 39.9 °F 30.2 °F 37.9 °F 93% 30.31 in 9.0 mi NNE 20.7 mph 29.9 mph N/A   Overcast
4:58 PM 39.0 °F 29.9 °F 37.9 °F 96% 30.31 in 10.0 mi NNE 17.3 mph 28.8 mph N/A   Overcast
5:12 PM 39.0 °F 29.0 °F 37.9 °F 96% 30.31 in 10.0 mi NNE 20.7 mph 29.9 mph N/A   Overcast
5:58 PM 39.0 °F 29.3 °F 37.0 °F 93% 30.32 in 10.0 mi North 19.6 mph 29.9 mph N/A   Overcast
6:58 PM 37.9 °F 27.3 °F 37.0 °F 97% 30.32 in 10.0 mi NNE 21.9 mph 34.5 mph N/A   Overcast
7:58 PM 39.0 °F 28.8 °F 37.0 °F 93% 30.32 in 10.0 mi North 21.9 mph 28.8 mph 0.00 in Rain Light Rain
8:58 PM 39.0 °F 28.8 °F 37.0 °F 93% 30.30 in 10.0 mi NNE 21.9 mph 27.6 mph 0.00 in Rain Light Rain
9:58 PM 39.0 °F 28.5 °F 37.9 °F 96% 30.28 in 10.0 mi NNE 23.0 mph 31.1 mph 0.00 in   Overcast
10:58 PM 39.9 °F 30.2 °F 37.9 °F 93% 30.27 in 10.0 mi NNE 20.7 mph 28.8 mph N/A   Overcast
11:58 PM 39.9 °F 32.1 °F 39.0 °F 97% 30.25 in 10.0 mi North 13.8 mph - N/A   Overcast